K2ATL Weather Reports


time (UTC)temp
C
wind
direction
speed
KPH
gust
KPH
rain 1hr
cm
rain 24hr
cm
rain mn
cm
humidity
%
barometer
mb
20260505112021 14 143 3.2 4.8 0.00 0.00 0.00 58 1099.9
20260505111520 14 144 4.8 8.0 0.00 0.00 0.00 57 1099.7
20260505111016 14 138 3.2 4.8 0.00 0.00 0.00 56 1099.7
20260505110513 14 139 4.8 8.0 0.00 0.00 0.00 56 1099.7
20260505101945 15 69 4.8 9.7 0.00 0.00 0.00 54 1099.2
20260505101444 15 139 3.2 3.2 0.00 0.00 0.00 55 1099.5
20260505100940 15 71 1.6 4.8 0.00 0.00 0.00 55 1099.4
20260505100437 15 54 4.8 4.8 0.00 0.00 0.00 54 1099.4
20260505095933 15 90 1.6 4.8 0.00 0.00 0.00 54 1099.4
20260505095430 15 43 4.8 8.0 0.00 0.00 0.00 53 1099.5
20260505094926 15 131 1.6 4.8 0.00 0.00 0.00 54 1099.6
20260505094423 15 153 4.8 8.0 0.00 0.00 0.00 55 1099.4
20260505093919 15 60 3.2 4.8 0.00 0.00 0.00 54 1099.6
20260505093416 15 104 3.2 4.8 0.00 0.00 0.00 55 1099.9
20260505092913 15 131 3.2 4.8 0.00 0.00 0.00 55 1099.6
20260505092411 15 32 1.6 4.8 0.00 0.00 0.00 55 1099.6
20260505091908 15 137 4.8 8.0 0.00 0.00 0.00 54 1099.5
20260505091406 15 134 4.8 8.0 0.00 0.00 0.00 55 1099.7
20260505090904 15 49 3.2 8.0 0.00 0.00 0.00 56 1099.6
20260505090402 15 138 4.8 8.0 0.00 0.00 0.00 56 1099.7
20260505085859 15 120 1.6 8.0 0.00 0.00 0.00 55 1099.9
20260505085357 15 144 3.2 9.7 0.00 0.00 0.00 55 1099.7
20260505084855 15 140 8.0 9.7 0.00 0.00 0.00 55 1099.7
20260505084353 15 145 1.6 4.8 0.00 0.00 0.00 55 1099.7
20260505083850 15 142 6.4 9.7 0.00 0.00 0.00 55 1100.0
20260505083347 15 125 3.2 9.7 0.00 0.00 0.00 54 1100.0
20260505082844 15 139 6.4 8.0 0.00 0.00 0.00 54 1099.7
20260505082339 15 129 4.8 11.3 0.00 0.00 0.00 54 1100.0
20260505081836 15 136 6.4 9.7 0.00 0.00 0.00 54 1099.9
20260505081333 15 156 4.8 11.3 0.00 0.00 0.00 53 1099.7
20260505080830 15 130 6.4 9.7 0.00 0.00 0.00 53 1099.9
20260505080326 15 133 6.4 16.1 0.00 0.00 0.00 53 1099.9
20260505075821 15 135 8.0 12.9 0.00 0.00 0.00 53 1099.9
20260505075319 15 160 6.4 16.1 0.00 0.00 0.00 53 1099.9
20260505074816 15 134 6.4 12.9 0.00 0.00 0.00 53 1099.9
20260505074313 15 131 4.8 12.9 0.00 0.00 0.00 54 1100.1
20260505073810 15 145 6.4 12.9 0.00 0.00 0.00 54 1100.0
20260505073308 15 133 8.0 12.9 0.00 0.00 0.00 54 1099.7
20260505072805 15 141 4.8 11.3 0.00 0.00 0.00 54 1099.9
20260505072301 15 135 6.4 9.7 0.00 0.00 0.00 54 1099.7
20260505071756 15 134 6.4 9.7 0.00 0.00 0.00 54 1099.9
20260505071253 15 136 8.0 9.7 0.00 0.00 0.00 54 1100.0
20260505070751 15 133 6.4 9.7 0.00 0.00 0.00 54 1099.9
20260505070247 15 143 8.0 12.9 0.00 0.00 0.00 54 1099.9
20260505065743 15 132 6.4 11.3 0.00 0.00 0.00 54 1099.9
20260505065240 15 138 4.8 9.7 0.00 0.00 0.00 54 1100.0
20260505064737 15 134 8.0 11.3 0.00 0.00 0.00 54 1100.0
20260505064235 15 135 8.0 9.7 0.00 0.00 0.00 54 1100.0
20260505063732 15 134 6.4 11.3 0.00 0.00 0.00 54 1100.0
20260505063228 15 135 8.0 12.9 0.00 0.00 0.00 54 1099.9
20260505062725 15 145 9.7 12.9 0.00 0.00 0.00 53 1100.1
20260505062223 16 132 4.8 9.7 0.00 0.00 0.00 54 1100.0
20260505061719 16 133 6.4 9.7 0.00 0.00 0.00 53 1100.0
20260505061217 16 142 9.7 12.9 0.00 0.00 0.00 53 1100.2
20260505060714 15 141 8.0 9.7 0.00 0.00 0.00 53 1100.1
20260505060211 16 139 4.8 9.7 0.00 0.00 0.00 53 1100.0
20260505055706 16 122 4.8 9.7 0.00 0.00 0.00 53 1100.3
20260505055203 16 132 6.4 11.3 0.00 0.00 0.00 52 1100.1
20260505054700 15 133 1.6 4.8 0.00 0.00 0.00 54 1100.2
20260505054158 16 50 3.2 4.8 0.00 0.00 0.00 54 1100.3
20260505053656 16 135 8.0 11.3 0.00 0.00 0.00 53 1100.2
20260505053152 16 134 8.0 12.9 0.00 0.00 0.00 52 1100.4
20260505052649 16 140 8.0 12.9 0.00 0.00 0.00 52 1100.3
20260505052146 16 142 8.0 12.9 0.00 0.00 0.00 52 1100.4
20260505051643 16 119 6.4 11.3 0.00 0.00 0.00 52 1100.3
20260505051142 16 132 4.8 11.3 0.00 0.00 0.00 52 1100.3
20260505050639 16 133 6.4 12.9 0.00 0.00 0.00 52 1100.2
20260505050137 16 142 8.0 12.9 0.00 0.00 0.00 53 1100.2
20260505041607 16 134 8.0 11.3 0.00 0.00 0.00 51 1100.2
20260505041104 16 130 8.0 9.7 0.00 0.00 0.00 51 1100.2
20260505040601 16 148 6.4 9.7 0.00 0.00 0.00 51 1100.0
20260505040058 16 130 1.6 8.0 0.00 0.00 0.00 51 1100.2
20260505035555 16 109 3.2 4.8 0.00 0.00 0.00 51 1100.2
20260505035051 16 101 3.2 8.0 0.00 0.00 0.00 51 1100.3
20260505034548 16 126 6.4 12.9 0.00 0.00 0.00 50 1100.3
20260505034044 16 137 6.4 9.7 0.00 0.00 0.00 50 1100.3
20260505033542 16 120 8.0 9.7 0.00 0.00 0.00 50 1100.3
20260505033040 16 130 6.4 11.3 0.00 0.00 0.00 51 1100.1
20260505032537 16 136 9.7 11.3 0.00 0.00 0.00 51 1100.1
20260505032033 16 124 4.8 11.3 0.00 0.00 0.00 51 1100.4
20260505031531 16 131 6.4 11.3 0.00 0.00 0.00 51 1100.3
20260505031027 16 133 6.4 8.0 0.00 0.00 0.00 51 1100.2
20260505030524 16 132 4.8 9.7 0.00 0.00 0.00 51 1100.2
20260505030020 17 133 8.0 9.7 0.00 0.00 0.00 51 1100.5
20260505025516 17 144 8.0 11.3 0.00 0.00 0.00 52 1100.4
20260505025016 16 139 4.8 11.3 0.00 0.00 0.00 53 1100.4
20260505024512 17 140 4.8 9.7 0.00 0.00 0.00 54 1100.4
20260505024009 17 139 6.4 9.7 0.00 0.00 0.00 54 1100.4
20260505023506 17 154 8.0 9.7 0.00 0.00 0.00 54 1100.5
20260505023004 17 132 4.8 8.0 0.00 0.00 0.00 54 1100.4
20260505022501 17 136 3.2 9.7 0.00 0.00 0.00 55 1100.3
20260505021958 17 136 4.8 8.0 0.00 0.00 0.00 55 1100.1
20260505021454 17 128 4.8 9.7 0.00 0.00 0.00 54 1100.2
20260505020950 17 135 4.8 9.7 0.00 0.00 0.00 55 1100.1
20260505020445 17 140 4.8 8.0 0.00 0.00 0.00 55 1100.1
20260505015943 17 134 4.8 9.7 0.00 0.00 0.00 55 1100.2
20260505015440 17 138 4.8 9.7 0.00 0.00 0.00 55 1100.1
20260505014937 17 141 3.2 4.8 0.00 0.00 0.00 56 1100.0
20260505014433 17 132 4.8 8.0 0.00 0.00 0.00 55 1100.0
20260505013931 17 139 3.2 4.8 0.00 0.00 0.00 56 1099.9
20260505013428 17 123 1.6 4.8 0.00 0.00 0.00 56 1100.0
20260505012926 17 128 1.6 4.8 0.00 0.00 0.00 55 1099.7
20260505012423 17 141 3.2 3.2 0.00 0.00 0.00 56 1100.0
20260505011919 17 46 1.6 3.2 0.00 0.00 0.00 56 1099.7
20260505011416 17 56 3.2 3.2 0.00 0.00 0.00 56 1099.9
20260505010913 17 48 3.2 3.2 0.00 0.00 0.00 55 1099.7
20260505010408 17 55 3.2 4.8 0.00 0.00 0.00 55 1099.7
20260505005904 17 57 3.2 3.2 0.00 0.00 0.00 55 1099.5
20260505005401 18 69 1.6 3.2 0.00 0.00 0.00 55 1099.5
20260505004859 18 103 0.0 1.6 0.00 0.00 0.00 54 1099.6
20260505004355 18 120 1.6 3.2 0.00 0.00 0.00 54 1099.6
20260505003853 18 136 3.2 4.8 0.00 0.00 0.00 52 1099.6
20260505003350 18 129 3.2 3.2 0.00 0.00 0.00 52 1099.5
20260505002845 18 117 1.6 1.6 0.00 0.00 0.00 52 1099.5
20260505002342 18 117 0.0 3.2 0.00 0.00 0.00 51 1099.4
20260505001841 19 135 0.0 1.6 0.00 0.00 0.00 51 1099.4
20260505001337 20 142 1.6 1.6 0.00 0.00 0.00 49 1099.4
20260505000835 20 143 3.2 3.2 0.00 0.00 0.00 49 1099.3
20260505000333 20 146 1.6 4.8 0.00 0.00 0.00 49 1099.5
20260504235829 20 141 1.6 4.8 0.00 0.00 0.00 48 1099.4
20260504235326 20 143 1.6 3.2 0.00 0.00 0.00 49 1099.5
20260504234823 20 144 1.6 3.2 0.00 0.00 0.00 49 1099.6
20260504234320 20 140 0.0 4.8 0.00 0.00 0.00 48 1099.4
20260504233817 21 158 1.6 4.8 0.00 0.00 0.00 47 1099.5
20260504233313 21 139 0.0 4.8 0.00 0.00 0.00 47 1099.5
20260504232809 21 152 4.8 9.7 0.00 0.00 0.00 46 1099.5
20260504232307 21 143 4.8 8.0 0.00 0.00 0.00 49 1099.5
20260504231804 21 111 3.2 8.0 0.00 0.00 0.00 49 1099.6
20260504231300 21 153 8.0 12.9 0.00 0.00 0.00 48 1099.6
20260504230755 20 156 6.4 8.0 0.00 0.00 0.00 49 1099.5
20260504230254 20 128 6.4 12.9 0.00 0.00 0.00 49 1099.3
20260504225753 20 124 9.7 11.3 0.00 0.00 0.00 49 1099.5
20260504225249 20 153 12.9 14.5 0.00 0.00 0.00 49 1099.4
20260504224746 20 156 4.8 12.9 0.00 0.00 0.00 49 1099.5
20260504224243 20 143 8.0 12.9 0.00 0.00 0.00 48 1099.6
20260504223739 20 153 6.4 11.3 0.00 0.00 0.00 49 1099.4
20260504223235 21 115 6.4 12.9 0.00 0.00 0.00 49 1099.5
20260504222732 21 116 6.4 8.0 0.00 0.00 0.00 47 1099.6
20260504222229 21 177 1.6 9.7 0.00 0.00 0.00 47 1099.5
20260504221726 21 164 6.4 14.5 0.00 0.00 0.00 46 1099.7
20260504221223 21 139 4.8 14.5 0.00 0.00 0.00 45 1099.6
20260504220720 21 150 8.0 12.9 0.00 0.00 0.00 45 1099.6
20260504220217 21 168 4.8 11.3 0.00 0.00 0.00 44 1099.6
20260504215714 21 147 1.6 16.1 0.00 0.00 0.00 43 1099.6
20260504215211 21 267 4.8 8.0 0.00 0.00 0.00 44 1099.7
20260504214707 21 174 4.8 11.3 0.00 0.00 0.00 42 1099.6
20260504214203 21 165 11.3 14.5 0.00 0.00 0.00 43 1099.6
20260504213700 21 241 3.2 8.0 0.00 0.00 0.00 43 1099.4
20260504213157 22 138 4.8 12.9 0.00 0.00 0.00 40 1099.5
20260504212654 22 138 1.6 4.8 0.00 0.00 0.00 42 1099.5
20260504212150 22 173 4.8 12.9 0.00 0.00 0.00 39 1099.5
20260504211648 22 149 8.0 14.5 0.00 0.00 0.00 39 1099.4
20260504211144 22 142 6.4 12.9 0.00 0.00 0.00 40 1099.5
20260504210642 22 138 9.7 12.9 0.00 0.00 0.00 40 1099.2
20260504210138 21 172 1.6 9.7 0.00 0.00 0.00 41 1099.5
20260504205636 21 314 1.6 4.8 0.00 0.00 0.00 44 1099.6
20260504205133 21 164 3.2 9.7 0.00 0.00 0.00 41 1099.6
20260504204631 22 224 1.6 4.8 0.00 0.00 0.00 40 1099.6
20260504204130 22 129 4.8 9.7 0.00 0.00 0.00 39 1099.7
20260504203628 22 149 3.2 8.0 0.00 0.00 0.00 41 1099.6
20260504203125 21 161 0.0 4.8 0.00 0.00 0.00 42 1099.9
20260504202625 22 149 6.4 14.5 0.00 0.00 0.00 40 1099.9
20260504202123 20 132 3.2 4.8 0.00 0.00 0.00 41 1099.9
20260504201619 22 137 11.3 12.9 0.00 0.00 0.00 40 1100.0
20260504201117 23 149 4.8 14.5 0.00 0.00 0.00 39 1099.9
20260504200614 23 145 6.4 14.5 0.00 0.00 0.00 39 1099.9
20260504200110 24 204 3.2 11.3 0.00 0.00 0.00 38 1100.0
20260504195606 24 125 6.4 14.5 0.00 0.00 0.00 36 1100.2
20260504195057 24 179 3.2 8.0 0.00 0.00 0.00 37 1100.3
20260504194554 22 153 4.8 11.3 0.00 0.00 0.00 38 1100.1
20260504194049 23 314 3.2 11.3 0.00 0.00 0.00 40 1100.3
20260504193546 22 309 3.2 8.0 0.00 0.00 0.00 41 1100.4
20260504193045 22 136 12.9 14.5 0.00 0.00 0.00 39 1100.5
20260504192543 21 143 4.8 4.8 0.00 0.00 0.00 42 1100.7
20260504192041 20 112 3.2 8.0 0.00 0.00 0.00 44 1100.6
20260504191538 22 159 6.4 12.9 0.00 0.00 0.00 41 1100.6
20260504191034 22 144 1.6 11.3 0.00 0.00 0.00 39 1100.7
20260504190531 22 120 3.2 11.3 0.00 0.00 0.00 40 1100.6
20260504190027 21 149 4.8 8.0 0.00 0.00 0.00 42 1100.8
20260504185524 20 10 8.0 11.3 0.00 0.00 0.00 42 1100.6
20260504185020 21 141 3.2 4.8 0.00 0.00 0.00 41 1100.7
20260504184516 21 143 1.6 3.2 0.00 0.00 0.00 41 1100.8
20260504184012 20 333 3.2 9.7 0.00 0.00 0.00 41 1100.9
20260504183509 22 158 3.2 4.8 0.00 0.00 0.00 41 1100.8
20260504183008 22 15 1.6 12.9 0.00 0.00 0.00 41 1101.0
20260504182503 21 292 3.2 8.0 0.00 0.00 0.00 40 1100.9
20260504182001 21 171 4.8 8.0 0.00 0.00 0.00 45 1101.0
20260504181458 20 263 3.2 4.8 0.00 0.00 0.00 45 1101.1
20260504180956 21 352 1.6 4.8 0.00 0.00 0.00 40 1101.4
20260504180455 21 162 6.4 11.3 0.00 0.00 0.00 44 1101.5
20260504175953 18 39 0.0 4.8 0.00 0.00 0.00 47 1101.5
20260504175449 20 13 4.8 8.0 0.00 0.00 0.00 46 1101.5
20260504174947 20 7 8.0 14.5 0.00 0.00 0.00 45 1101.5
20260504174444 18 243 1.6 8.0 0.00 0.00 0.00 48 1101.7
20260504173941 18 149 1.6 11.3 0.00 0.00 0.00 48 1101.5
20260504173437 18 262 4.8 9.7 0.00 0.00 0.00 46 1101.7
20260504172936 19 251 3.2 11.3 0.00 0.00 0.00 45 1101.6
20260504172431 17 140 1.6 3.2 0.00 0.00 0.00 47 1101.8
20260504171928 20 146 9.7 12.9 0.00 0.00 0.00 44 1101.9
20260504171425 18 237 3.2 12.9 0.00 0.00 0.00 47 1101.8
20260504170922 20 177 4.8 9.7 0.00 0.00 0.00 45 1102.0
20260504170418 18 168 8.0 11.3 0.00 0.00 0.00 47 1101.8
20260504160337 17 177 4.8 9.7 0.00 0.00 0.00 47 1102.5
20260504150802 13 272 6.4 9.7 0.00 0.00 0.00 54 1103.1
20260504150259 13 226 4.8 9.7 0.00 0.00 0.00 51 1103.1
20260504141229 13 186 4.8 8.0 0.00 0.00 0.00 54 1103.2
20260504140725 13 200 3.2 4.8 0.00 0.00 0.00 55 1103.1
20260504140220 12 315 3.2 3.2 0.00 0.00 0.00 58 1103.2
20260504130649 12 4 0.0 1.6 0.00 0.00 0.00 48 1102.8
20260504130145 12 49 1.6 1.6 0.00 0.00 0.00 46 1103.2
20260504120110 11 52 3.2 3.2 0.00 0.00 0.00 61 1102.8